Weather History for Crystal River, FL

Change the Weather History Date:

Sunday, November 25, 2012

  Actual Average (KBKV) Record (KBKV)
Temperature  
Mean Temperature 49 °F -  
Max Temperature 66 °F 73 °F 84 °F (2001)
Min Temperature 32 °F 47 °F 28 °F (2012)
Degree Days  
Heating Degree Days 16    
Moisture  
Dew Point 34 °F    
Average Humidity 70    
Maximum Humidity 100    
Minimum Humidity 24    
Precipitation  
Precipitation 0.00 in - - ()
Sea Level Pressure  
Sea Level Pressure 30.15 in    
Wind  
Wind Speed 1 mph (NW)    
Max Wind Speed 9 mph    
Max Gust Speed -    
Visibility 10 miles    
Events      
Averages and records for this station are not official NWS values.
T = Trace of Precipitation, MM = Missing Value Source: NWS Daily Summary

Daily Weather History Graph

Daily Weather History Graph

Search for Another Location

Airport:

Trip Planner

Search our weather history database for the weather conditions in past years. The results will help you decide how hot, cold, wet, or windy it might be!

Date:

Astronomy

Nov. 25, 2012 Rise Set
Actual Time 7:01 AM EST 5:32 PM EST
Civil Twilight 6:36 AM EST 5:58 PM EST
Nautical Twilight 6:07 AM EST 6:27 PM EST
Astronomical Twilight 5:38 AM EST 6:55 PM EST
Moon 3:41 PM EST (11/25) 4:23 AM EST (11/25)
Length of Visible Light 11h 22m
Length of Day
10h 31m
Waxing Gibbous, 93% of the Moon is Illuminated
Nov 25
Waxing Gibbous
Nov 28
Full
Dec 6
Last Quarter
Dec 13
New
Dec 20
First Quarter

Hourly Weather History & Observations

Time (EST) Temp. Dew Point Humidity Pressure Visibility Wind Dir Wind Speed Gust Speed Precip Events Conditions
12:15 AM 39.2 °F 37.4 °F 93% 30.12 in 10.0 mi Calm Calm - N/A   Clear
12:35 AM 39.2 °F 37.4 °F 93% 30.11 in 10.0 mi Calm Calm - N/A   Clear
12:55 AM 37.4 °F 37.4 °F 100% 30.11 in 10.0 mi Calm Calm - N/A   Clear
1:15 AM 37.4 °F 37.4 °F 100% 30.12 in 10.0 mi Calm Calm - N/A   Clear
1:35 AM 37.4 °F 35.6 °F 93% 30.12 in 10.0 mi Calm Calm - N/A   Clear
1:55 AM 35.6 °F 35.6 °F 100% 30.12 in 10.0 mi Calm Calm - N/A   Clear
2:15 AM 35.6 °F 35.6 °F 100% 30.12 in 10.0 mi Calm Calm - N/A   Clear
2:35 AM 33.8 °F 33.8 °F 100% 30.12 in 10.0 mi Calm Calm - N/A   Clear
2:55 AM 35.6 °F 33.8 °F 93% 30.12 in 10.0 mi Calm Calm - N/A   Clear
3:15 AM 33.8 °F 33.8 °F 100% 30.12 in 7.0 mi Calm Calm - N/A   Clear
3:35 AM 33.8 °F 33.8 °F 100% 30.12 in 10.0 mi Calm Calm - N/A   Clear
3:55 AM 33.8 °F 33.8 °F 100% 30.12 in 10.0 mi Calm Calm - N/A   Clear
4:15 AM 32.0 °F 32.0 °F 100% 30.12 in 10.0 mi Calm Calm - N/A   Clear
4:35 AM 32.0 °F 32.0 °F 100% 30.12 in 10.0 mi Calm Calm - N/A   Clear
4:55 AM 32.0 °F 32.0 °F 100% 30.13 in 10.0 mi Calm Calm - N/A   Clear
5:15 AM 32.0 °F 32.0 °F 100% 30.13 in 10.0 mi Calm Calm - N/A   Clear
5:35 AM 32.0 °F 32.0 °F 100% 30.13 in 10.0 mi Calm Calm - N/A   Clear
5:55 AM 32.0 °F 32.0 °F 100% 30.13 in 10.0 mi Calm Calm - N/A   Clear
6:15 AM 32.0 °F 32.0 °F 100% 30.14 in 10.0 mi Calm Calm - N/A   Clear
6:35 AM 32.0 °F 32.0 °F 100% 30.15 in 10.0 mi Calm Calm - N/A   Clear
6:55 AM 32.0 °F 32.0 °F 100% 30.15 in 10.0 mi Calm Calm - N/A   Clear
7:15 AM 32.0 °F 32.0 °F 100% 30.16 in 10.0 mi Calm Calm - N/A   Clear
7:35 AM 32.0 °F 32.0 °F 100% 30.16 in 10.0 mi Calm Calm - N/A   Clear
7:55 AM 33.8 °F 32.0 °F 93% 30.17 in 10.0 mi Calm Calm - N/A   Clear
8:15 AM 37.4 °F 33.8 °F 87% 30.18 in 10.0 mi Calm Calm - N/A   Clear
8:35 AM 42.8 °F 33.8 °F 70% 30.19 in 10.0 mi Calm Calm - N/A   Clear
8:55 AM 46.4 °F 32.0 °F 57% 30.20 in 10.0 mi Calm Calm - N/A   Clear
9:15 AM 50.0 °F 33.8 °F 54% 30.20 in 10.0 mi ENE 4.6 mph - N/A   Clear
9:35 AM 53.6 °F 32.0 °F 44% 30.20 in 10.0 mi NE 3.5 mph - N/A   Clear
9:55 AM 55.4 °F 32.0 °F 41% 30.21 in 10.0 mi NE 3.5 mph - N/A   Clear
10:15 AM 59.0 °F 30.2 °F 34% 30.21 in 10.0 mi ENE 3.5 mph - N/A   Clear
10:35 AM 59.0 °F 28.4 °F 31% 30.20 in 10.0 mi East 3.5 mph - N/A   Clear
10:55 AM 60.8 °F 28.4 °F 29% 30.20 in 10.0 mi Calm Calm - N/A   Clear
11:15 AM 62.6 °F 28.4 °F 27% 30.19 in 10.0 mi Calm Calm - N/A   Clear
11:35 AM 62.6 °F 28.4 °F 27% 30.19 in 10.0 mi WNW 3.5 mph - N/A   Clear
11:55 AM 64.4 °F 26.6 °F 24% 30.18 in 10.0 mi NW 3.5 mph - N/A   Clear
12:15 PM 64.4 °F 28.4 °F 26% 30.17 in 10.0 mi NNW 3.5 mph - N/A   Clear
12:35 PM 64.4 °F 26.6 °F 24% 30.16 in 10.0 mi WNW 3.5 mph - N/A   Clear
12:55 PM 64.4 °F 28.4 °F 26% 30.15 in 10.0 mi NW 4.6 mph - N/A   Clear
1:15 PM 66.2 °F 32.0 °F 28% 30.14 in 10.0 mi West 8.1 mph - N/A   Clear
1:35 PM 64.4 °F 32.0 °F 30% 30.14 in 10.0 mi WNW 5.8 mph - N/A   Clear
1:55 PM 64.4 °F 32.0 °F 30% 30.13 in 10.0 mi West 8.1 mph - N/A   Clear
2:15 PM 64.4 °F 32.0 °F 30% 30.13 in 10.0 mi West 9.2 mph - N/A   Clear
2:35 PM 64.4 °F 32.0 °F 30% 30.12 in 10.0 mi NW 4.6 mph - N/A   Clear
2:55 PM 64.4 °F 32.0 °F 30% 30.12 in 10.0 mi WNW 6.9 mph - N/A   Clear
3:15 PM 64.4 °F 32.0 °F 30% 30.12 in 10.0 mi WNW 6.9 mph - N/A   Clear
3:35 PM 62.6 °F 33.8 °F 34% 30.12 in 10.0 mi WNW 5.8 mph - N/A   Clear
3:55 PM 62.6 °F 35.6 °F 37% 30.12 in 10.0 mi West 8.1 mph - N/A   Clear
4:15 PM 60.8 °F 35.6 °F 39% 30.12 in 10.0 mi WNW 6.9 mph - N/A   Clear
4:35 PM 60.8 °F 35.6 °F 39% 30.12 in 10.0 mi WNW 5.8 mph - N/A   Clear
4:55 PM 59.0 °F 37.4 °F 45% 30.13 in 10.0 mi West 4.6 mph - N/A   Clear
5:15 PM 57.2 °F 37.4 °F 48% 30.13 in 10.0 mi WNW 5.8 mph - N/A   Clear
5:35 PM 55.4 °F 37.4 °F 51% 30.13 in 10.0 mi Calm Calm - N/A   Clear
5:55 PM 53.6 °F 39.2 °F 58% 30.13 in 10.0 mi Calm Calm - N/A   Clear
6:15 PM 51.8 °F 39.2 °F 62% 30.14 in 10.0 mi Calm Calm - N/A   Clear
6:35 PM 50.0 °F 39.2 °F 66% 30.14 in 10.0 mi Calm Calm - N/A   Clear
6:55 PM 46.4 °F 37.4 °F 71% 30.16 in 10.0 mi Calm Calm - N/A   Clear
7:15 PM 44.6 °F 37.4 °F 76% 30.16 in 10.0 mi Calm Calm - N/A   Clear
7:35 PM 44.6 °F 37.4 °F 76% 30.17 in 10.0 mi Calm Calm - N/A   Clear
7:55 PM 42.8 °F 37.4 °F 81% 30.17 in 10.0 mi Calm Calm - N/A   Clear
8:15 PM 42.8 °F 37.4 °F 81% 30.17 in 10.0 mi Calm Calm - N/A   Clear
8:35 PM 42.8 °F 37.4 °F 81% 30.17 in 10.0 mi Calm Calm - N/A   Clear
8:55 PM 41.0 °F 37.4 °F 87% 30.17 in 10.0 mi Calm Calm - N/A   Clear
9:15 PM 41.0 °F 37.4 °F 87% 30.18 in 10.0 mi Calm Calm - N/A   Clear
9:35 PM 39.2 °F 35.6 °F 87% 30.18 in 10.0 mi Calm Calm - N/A   Clear
9:55 PM 39.2 °F 35.6 °F 87% 30.18 in 10.0 mi Calm Calm - N/A   Clear
10:15 PM 37.4 °F 35.6 °F 93% 30.18 in 10.0 mi Calm Calm - N/A   Clear
10:35 PM 37.4 °F 35.6 °F 93% 30.18 in 10.0 mi Calm Calm - N/A   Clear
10:55 PM 37.4 °F 35.6 °F 93% 30.18 in 10.0 mi Calm Calm - N/A   Clear
11:15 PM 37.4 °F 35.6 °F 93% 30.18 in 10.0 mi Calm Calm - N/A   Clear
11:35 PM 35.6 °F 35.6 °F 100% 30.18 in 10.0 mi Calm Calm - N/A   Clear
11:55 PM 35.6 °F 35.6 °F 100% 30.18 in 10.0 mi Calm Calm - N/A   Clear